003  
ASUS41 KOKX 250509  
RWROKX  
 
REGIONAL WEATHER ROUNDUP  
NATIONAL WEATHER SERVICE NEW YORK NY  
100 AM EDT SUN JUN 25 2017  
 
NOTE: "FAIR" INDICATES FEW OR NO CLOUDS BELOW 12,000 FEET WITH NO  
SIGNIFICANT WEATHER AND/OR S TO VISIBILITY
.  
 
NYZ071-072-176-178-NJZ106-104-250600-  
NEW YORK CITY METRO AREA  
 
CITY SKY/WX TMP DP RH WIND PRES REMARKS
 
CENTRAL PARK CLEAR 75 58 55 VRB3 29.95R  
BRONX BOT GARD N/A 73 57 56 W3 29.93F  
LAGUARDIA APRT PTCLDY 75 62 64 NW8 29.91R  
KENNEDY INTL CLOUDY 77 61 57 NW16 29.92R  
BREEZY POINT N/A 70 N/A N/A W8 N/A  
NEWARK/LIBERTY PTCLDY 75 58 55 NW9 29.92R  
TETERBORO CLEAR 73 59 61 NW9 29.91R  

 
 
NYZ177-179-078>081-250600-  
LONG ISLAND NEW YORK  
 
CITY SKY/WX TMP DP RH WIND PRES REMARKS
 
JONES BEACH N/A 68 N/A N/A W7G13 N/A  
MATINECOCK PT NOT AVBL  
FARMINGDALE NOT AVBL  
MACARTHUR/ISP CLEAR 72 62 71 W10 29.91R  
SHIRLEY CLEAR 72 65 78 W6 29.90R  
MT SINAI HARB N/A N/A N/A N/A NW7 N/A  
WESTHAMPTON CLEAR 61 56 83 CALM 29.91S  
EAST HAMPTON FAIR 67 59 77 CALM 29.89S  
MONTAUK N/A 74 60 61 SW6 29.90R  

 
 
NYZ052-065-067-250600-  
HUDSON VALLEY  
 
CITY SKY/WX TMP DP RH WIND PRES REMARKS
 
WHITE PLAINS PTCLDY 72 57 60 NW9 29.92S  
LARCHMONT HARB N/A 73 N/A N/A W8 N/A  
CROTON O-T HUD N/A 72 N/A N/A NE2 N/A  
NEWBURGH MOCLDY 66 66 100 CALM 29.95S  
MONTGOMERY CLOUDY 67 61 81 NW3 29.93S  
POUGHKEEPSIE CLOUDY 67 64 90 CALM 29.91F  
ALBANY PTCLDY 65 54 67 W5 29.92R  

 
 
NJZ001-105-106-008-010-013-015-019>022-104-250600-  
NEW JERSEY  
 
CITY SKY/WX TMP DP RH WIND PRES REMARKS
 
NEWARK/LIBERTY PTCLDY 75 58 55 NW9 29.92R  
TETERBORO CLEAR 73 59 61 NW9 29.91R  
CALDWELL MOCLDY 72 59 63 CALM 29.93S  
SOMERVILLE CLOUDY 68 63 84 CALM 29.92R  
LINDEN FAIR 74 58 56 CALM 29.93R  
PERTH AMBOY N/A 75 N/A N/A NW12 N/A  
SUSSEX PTCLDY 67 60 78 W3 29.95S  
ANDOVER N/A 65 60 84 CALM 29.95F  
TRENTON MOCLDY 75 60 59 W6 29.93R  
MILLVILLE PTCLDY 66 65 96 CALM 29.94F  
ATLANTIC CITY CLEAR 75 63 66 SW6 29.94S  
WRIGHTSTOWN PTCLDY 67 62 84 W5 29.90S  
TOMS RIVER PTCLDY 68 62 81 SW3 29.94S  
BELMAR MOCLDY 72 61 68 SW6 29.93S  

 
 
PAZ047>061-062-071-250600-  
EASTERN PENNSYLVANIA  
 
CITY SKY/WX TMP DP RH WIND PRES REMARKS
 
PHILADELPHIA PTCLDY 75 61 61 SW6 29.93F  
ALLENTOWN CLOUDY 70 59 68 CALM 29.96R  
SCRANTON CLEAR 62 61 96 CALM 29.97S  

 
 
CTZ002-004>006-009-010-012-RIZ004-006-007-MAZ004-011-015-250600-  
SOUTHERN NEW ENGLAND  
IN CT  
 
CITY SKY/WX TMP DP RH WIND PRES REMARKS
 
BRADLEY INTL CLOUDY 70 57 63 CALM 29.90S  
HARTFORD CLOUDY 71 59 65 CALM 29.90S  
DANBURY MOCLDY 67 61 81 CALM 29.94S  
WTRBURY/OXFORD PTCLDY 64 55 72 NW3 29.94R  
BRIDGEPORT CLEAR 73 60 63 NW9 29.89R  
MERIDEN PTCLDY 70 58 65 NW6 29.91R  
NEW HAVEN NOT AVBL  
CHESTER FAIR 72 57 60 NW6G13 29.91S  
GROTON MOCLDY 69 60 73 NW6 29.88R  
WILIMANTIC CLOUDY 69 60 73 N8 29.91R  
 
IN RI  
 
CITY SKY/WX TMP DP RH WIND PRES REMARKS
 
PROVIDENCE CLEAR 67 58 72 W6 29.87S  
BLOCK ISLAND CLEAR 69 58 67 SW9 29.89R  
WESTERLY CLEAR 67 62 84 CALM 29.88S  
IN MA  
 
CITY SKY/WX TMP DP RH WIND PRES REMARKS
 
BOSTON PTCLDY 74 54 49 W12 29.85R  
WORCESTER CLOUDY 67 52 58 W10 29.91R  
WESTFIELD CLOUDY 71 53 52 NW3 N/A  
PROVINCETOWN CLEAR 67 56 67 W10 29.86R  
NANTUCKET N/A 67 60 78 W12 29.87R  

 
 
ANZ330-335-338-340-345-350-353-355-250600-  
COASTAL MARINE OBSERVATIONS  
 
 
STATION/POSITION TIME SKY/WX TEMP WIND PRES VSBY WAVE
 
AIR SEA DIR/SP/G HT/PER  
(UTC) (F) (DEG/KT/KT) (MB) (MI) (FT/S)  
NY HARB ENTRANCE 0350 71 67 240/ 10/ 10 1012.4 4/ 8  
20 S FIRE ISLAND 0450 71 69 230/ 10/ 12 1012.3 5/ 8  
GREAT SOUTH BAY 0430 74 76 250/ 12/ 14 N/A  
23 SSW MONTAUK P 0350 68 64 1012.4 6/ 9  
15 E BARNEGAT LI 0430 65 N/A 4/ 8  
HUDSON CANYON 0350 69 66 220/ 8/ 10 1013.2 5/ 8  
KINGS POINT 0430 73 65 10/ 11/ 15 1012.7  
EXECUTION ROCKS 0445 72 320/ 10/ 14 N/A  
CENTRAL LI SOUND 0445 71 300/ 12/ 17 N/A 1  
EASTERN LI SOUND NOT AVBL  
ROBBINS REEF 0442 320/ 10/ 14 1013.6  

 
 
>>>>>>>>>>>>>>>>>>>>>>>>>>>> KEY <<<<<<<<<<<<<<<<<<<<<<<<<<<  
> <  
> SKY/WX - SKY CONDITION/PRESENT WEATHER <  
> TMP - TEMPERATURE IN FAHRENHEIT <  
> DP - DEW POINT IN FAHRENHEIT <  
> RH - RELATIVE HUMIDITY IN PERCENT <  
> WIND - DIRECTION (FROM) AND SPEED IN MPH <  
> PRES - MEAN SEA LEVEL PRESSURE (INCHES OF HG) <  
> WCI - WIND CHILL INDEX <  
> VSB - VISIBILITY IN MILES <  
> HX - HEAT INDEX <  
> TC - TEMPERATURE IN CELSIUS <  
> VRB - VARIABLE WIND DIRECTION <  
> <  
>>>>>>>>>>>>>>>>>>>>>>>>>>>> KEY <<<<<<<<<<<<<<<<<<<<<<<<<<<  
 
 
CLICK HERE TO GO TO PREVIOUS BULLETINS.

The Nexlab NY Page
The Nexlab NJ Page
The Nexlab CT Page Main Text Page